| time (UTC) | temp F | wind direction | speed MPH | gust MPH | rain 1hr in | rain 24hr in | rain mn in | humidity % | barometer mb |
| 20260906110305 | 70 | 310 | 8.0 | 0.0 | 0.00 | 0.00 | 0.00 | 37 | 1026.0 |
| 20260906100245 | 68 | 310 | 12.0 | 0.0 | 0.00 | 0.00 | 0.00 | 40 | 1026.0 |
| 20260906090243 | 68 | 330 | 10.0 | 0.0 | 0.00 | 0.00 | 0.00 | 42 | 1026.0 |
| 20260906080250 | 66 | 310 | 13.0 | 0.0 | 0.00 | 0.00 | 0.00 | 45 | 1026.0 |
| 20260906070316 | 64 | 310 | 14.0 | 0.0 | 0.00 | 0.00 | 0.00 | 52 | 1026.0 |
| 20260905170614 | 75 | 290 | 10.0 | 0.0 | 0.00 | 0.00 | 0.00 | 33 | 1018.0 |
| 20260905163900 | 75 | 290 | 10.0 | 0.0 | 0.00 | 0.00 | 0.00 | 33 | 1018.0 |
| 20260905162958 | 75 | 290 | 10.0 | 0.0 | 0.00 | 0.00 | 0.00 | 33 | 1018.0 |
| 20260905162313 | 75 | 290 | 10.0 | 0.0 | 0.00 | 0.00 | 0.00 | 33 | 1018.0 |
| 20260905161700 | 75 | 290 | 10.0 | 0.0 | 0.00 | 0.00 | 0.00 | 33 | 1018.0 |
| 20260905161200 | 75 | 290 | 10.0 | 0.0 | 0.00 | 0.00 | 0.00 | 33 | 1018.0 |
| 20260905160859 | 75 | 290 | 10.0 | 0.0 | 0.00 | 0.00 | 0.00 | 33 | 1018.0 |
| 20260905160403 | 75 | 290 | 10.0 | 0.0 | 0.00 | 0.00 | 0.00 | 33 | 1018.0 |
| 20260905154759 | 77 | 270 | 13.0 | 0.0 | 0.00 | 0.00 | 0.00 | 31 | 1018.0 |
| 20260905154621 | 77 | 270 | 13.0 | 0.0 | 0.00 | 0.00 | 0.00 | 31 | 1018.0 |
| 20260905154300 | 77 | 270 | 13.0 | 0.0 | 0.00 | 0.00 | 0.00 | 31 | 1018.0 |
| 20260905151910 | 77 | 270 | 13.0 | 0.0 | 0.00 | 0.00 | 0.00 | 31 | 1018.0 |
| 20260905151200 | 77 | 270 | 13.0 | 0.0 | 0.00 | 0.00 | 0.00 | 31 | 1018.0 |
| 20260905150658 | 77 | 270 | 13.0 | 0.0 | 0.00 | 0.00 | 0.00 | 31 | 1018.0 |
| 20260905145959 | 77 | 290 | 13.0 | 0.0 | 0.00 | 0.00 | 0.00 | 31 | 1018.0 |
| 20260905145659 | 77 | 290 | 13.0 | 0.0 | 0.00 | 0.00 | 0.00 | 31 | 1018.0 |
| 20260905145158 | 77 | 290 | 13.0 | 0.0 | 0.00 | 0.00 | 0.00 | 31 | 1018.0 |
| 20260905144259 | 77 | 290 | 13.0 | 0.0 | 0.00 | 0.00 | 0.00 | 31 | 1018.0 |
| 20260905143800 | 77 | 290 | 13.0 | 0.0 | 0.00 | 0.00 | 0.00 | 31 | 1018.0 |
| 20260905142206 | 77 | 290 | 13.0 | 0.0 | 0.00 | 0.00 | 0.00 | 31 | 1018.0 |
| 20260905140520 | 77 | 290 | 13.0 | 0.0 | 0.00 | 0.00 | 0.00 | 31 | 1018.0 |
| 20260905140204 | 77 | 270 | 10.0 | 0.0 | 0.00 | 0.00 | 0.00 | 38 | 1018.0 |
| 20260905135121 | 77 | 270 | 10.0 | 0.0 | 0.00 | 0.00 | 0.00 | 38 | 1018.0 |
| 20260905134659 | 77 | 270 | 10.0 | 0.0 | 0.00 | 0.00 | 0.00 | 38 | 1018.0 |
| 20260905134259 | 77 | 270 | 10.0 | 0.0 | 0.00 | 0.00 | 0.00 | 38 | 1018.0 |
| 20260905133900 | 77 | 270 | 10.0 | 0.0 | 0.00 | 0.00 | 0.00 | 38 | 1018.0 |
| 20260905133513 | 77 | 270 | 10.0 | 0.0 | 0.00 | 0.00 | 0.00 | 38 | 1018.0 |
| 20260905133159 | 77 | 270 | 10.0 | 0.0 | 0.00 | 0.00 | 0.00 | 38 | 1018.0 |
| 20260905132316 | 77 | 270 | 10.0 | 0.0 | 0.00 | 0.00 | 0.00 | 38 | 1018.0 |
| 20260905131658 | 77 | 270 | 10.0 | 0.0 | 0.00 | 0.00 | 0.00 | 38 | 1018.0 |
| 20260905131159 | 77 | 270 | 10.0 | 0.0 | 0.00 | 0.00 | 0.00 | 38 | 1018.0 |
| 20260905130759 | 77 | 270 | 10.0 | 0.0 | 0.00 | 0.00 | 0.00 | 38 | 1018.0 |
| 20260905130410 | 77 | 270 | 10.0 | 0.0 | 0.00 | 0.00 | 0.00 | 38 | 1018.0 |
| 20260905130307 | 72 | 270 | 12.0 | 0.0 | 0.00 | 0.00 | 0.00 | 46 | 1019.0 |
| 20260905125659 | 72 | 270 | 12.0 | 0.0 | 0.00 | 0.00 | 0.00 | 46 | 1019.0 |
| 20260905125500 | 72 | 270 | 12.0 | 0.0 | 0.00 | 0.00 | 0.00 | 46 | 1019.0 |
| 20260905125300 | 72 | 270 | 12.0 | 0.0 | 0.00 | 0.00 | 0.00 | 46 | 1019.0 |
| 20260905124959 | 72 | 270 | 12.0 | 0.0 | 0.00 | 0.00 | 0.00 | 46 | 1019.0 |
| 20260905124620 | 72 | 270 | 12.0 | 0.0 | 0.00 | 0.00 | 0.00 | 46 | 1019.0 |
| 20260905124120 | 72 | 270 | 12.0 | 0.0 | 0.00 | 0.00 | 0.00 | 46 | 1019.0 |
| 20260905123700 | 72 | 270 | 12.0 | 0.0 | 0.00 | 0.00 | 0.00 | 46 | 1019.0 |
| 20260905123359 | 72 | 270 | 12.0 | 0.0 | 0.00 | 0.00 | 0.00 | 46 | 1019.0 |
| 20260905123200 | 72 | 270 | 12.0 | 0.0 | 0.00 | 0.00 | 0.00 | 46 | 1019.0 |
| 20260905122213 | 72 | 270 | 12.0 | 0.0 | 0.00 | 0.00 | 0.00 | 46 | 1019.0 |
| 20260905121810 | 72 | 270 | 12.0 | 0.0 | 0.00 | 0.00 | 0.00 | 46 | 1019.0 |
| 20260905121159 | 72 | 270 | 12.0 | 0.0 | 0.00 | 0.00 | 0.00 | 46 | 1019.0 |
| 20260905120615 | 72 | 270 | 12.0 | 0.0 | 0.00 | 0.00 | 0.00 | 46 | 1019.0 |
| 20260905115907 | 72 | 250 | 8.0 | 0.0 | 0.00 | 0.00 | 0.00 | 56 | 1019.0 |
| 20260905114120 | 72 | 250 | 8.0 | 0.0 | 0.00 | 0.00 | 0.00 | 56 | 1019.0 |